TimeEST,TemperatureF,Dew PointF,Humidity,Sea Level PressureIn,VisibilityMPH,Wind Direction,Wind SpeedMPH,Gust SpeedMPH,PrecipitationIn,Events,Conditions,WindDirDegrees,DateUTC
12:53 AM,60.1,59.0,96,30.17,10.0,North,10.4,-,0.00,Rain,Light Rain,360,2013-01-04 05:53:00
1:53 AM,59.0,57.9,96,30.17,6.0,North,11.5,-,0.00,Rain,Light Rain,10,2013-01-04 06:53:00
2:04 AM,57.2,57.2,100,30.17,3.0,North,16.1,-,0.01,Rain,Light Rain,10,2013-01-04 07:04:00
2:53 AM,57.0,57.0,100,30.18,3.0,North,12.7,-,0.02,,Overcast,10,2013-01-04 07:53:00
3:53 AM,55.9,55.9,100,30.18,10.0,North,4.6,-,0.00,,Overcast,360,2013-01-04 08:53:00
4:53 AM,57.0,57.0,100,30.18,10.0,North,6.9,-,0.00,,Overcast,10,2013-01-04 09:53:00
5:53 AM,57.0,57.0,100,30.19,10.0,North,11.5,-,0.00,,Overcast,10,2013-01-04 10:53:00
6:53 AM,55.9,55.9,100,30.22,10.0,North,12.7,-,0.00,,Overcast,360,2013-01-04 11:53:00
7:53 AM,55.9,54.0,93,30.25,10.0,North,10.4,-,N/A,,Overcast,360,2013-01-04 12:53:00
8:53 AM,55.9,55.0,97,30.26,10.0,North,9.2,-,N/A,,Overcast,10,2013-01-04 13:53:00
9:53 AM,57.0,55.0,93,30.27,10.0,North,9.2,-,N/A,,Overcast,10,2013-01-04 14:53:00
10:53 AM,57.9,57.0,97,30.27,3.0,NNW,6.9,-,0.00,,Light Drizzle,340,2013-01-04 15:53:00
11:53 AM,59.0,57.9,96,30.25,3.0,North,8.1,-,0.00,,Overcast,10,2013-01-04 16:53:00
12:53 PM,60.1,57.9,93,30.22,3.0,North,10.4,-,0.00,Rain,Light Rain,360,2013-01-04 17:53:00
1:07 PM,60.8,57.2,88,30.22,2.0,North,8.1,-,0.00,Rain,Light Rain,360,2013-01-04 18:07:00
1:15 PM,60.8,57.2,88,30.22,1.0,NNW,8.1,-,0.01,Rain,Light Rain,340,2013-01-04 18:15:00
1:45 PM,59.0,57.2,94,30.21,7.0,North,9.2,-,0.01,,Overcast,360,2013-01-04 18:45:00
1:53 PM,60.1,57.9,93,30.21,7.0,North,8.1,-,0.01,,Overcast,360,2013-01-04 18:53:00
2:53 PM,59.0,57.9,96,30.21,10.0,North,9.2,-,0.00,,Overcast,360,2013-01-04 19:53:00
3:32 PM,59.0,57.2,94,30.22,2.0,North,6.9,-,N/A,,Overcast,360,2013-01-04 20:32:00
3:53 PM,60.1,57.9,93,30.22,2.0,North,5.8,-,N/A,,Overcast,10,2013-01-04 20:53:00
4:07 PM,60.8,59.0,94,30.22,3.0,NNW,4.6,-,N/A,,Overcast,330,2013-01-04 21:07:00
4:53 PM,60.1,59.0,96,30.23,3.0,NNW,9.2,-,N/A,,Overcast,340,2013-01-04 21:53:00
5:10 PM,59.0,57.2,94,30.24,2.0,NNW,10.4,-,N/A,,Overcast,340,2013-01-04 22:10:00
5:44 PM,59.0,59.0,100,30.25,1.0,NNW,9.2,-,N/A,,Overcast,340,2013-01-04 22:44:00
5:53 PM,59.0,57.9,96,30.25,1.0,NNW,5.8,-,N/A,,Overcast,340,2013-01-04 22:53:00
6:18 PM,59.0,59.0,100,30.26,5.0,NNW,6.9,-,N/A,,Overcast,340,2013-01-04 23:18:00
6:48 PM,59.0,59.0,100,30.27,2.0,NNW,6.9,-,0.00,,Drizzle,340,2013-01-04 23:48:00
6:53 PM,59.0,59.0,100,30.27,2.0,NNW,6.9,-,0.00,,Light Drizzle,340,2013-01-04 23:53:00
7:53 PM,59.0,59.0,100,30.28,2.0,North,5.8,-,0.00,,Light Drizzle,360,2013-01-05 00:53:00
8:45 PM,59.0,57.2,94,30.29,3.0,NNE,10.4,-,0.00,,Overcast,20,2013-01-05 01:45:00
8:53 PM,59.0,57.9,96,30.29,3.0,North,8.1,-,0.00,,Overcast,10,2013-01-05 01:53:00
9:01 PM,57.2,57.2,100,30.29,6.0,North,11.5,-,N/A,,Overcast,10,2013-01-05 02:01:00
9:29 PM,57.2,57.2,100,30.29,7.0,North,11.5,-,N/A,,Overcast,10,2013-01-05 02:29:00
9:38 PM,57.2,55.4,94,30.29,7.0,North,15.0,-,N/A,,Overcast,360,2013-01-05 02:38:00
9:53 PM,57.0,55.9,96,30.29,7.0,North,10.4,-,N/A,,Overcast,10,2013-01-05 02:53:00
10:53 PM,57.0,55.0,93,30.29,10.0,NNE,9.2,-,N/A,,Overcast,20,2013-01-05 03:53:00
11:04 PM,57.2,55.4,94,30.29,10.0,NNE,5.8,-,N/A,,Overcast,30,2013-01-05 04:04:00
11:15 PM,57.2,55.4,94,30.29,10.0,North,6.9,-,N/A,,Overcast,360,2013-01-05 04:15:00
11:53 PM,55.9,55.0,97,30.29,9.0,North,9.2,-,N/A,,Overcast,10,2013-01-05 04:53:00